Volver al catálogo

ATLAS CENTAUR R/B

ActivoGTO
NORAD 10025·ROCKET BODY·🇺🇸 United States

Lanzado May 26, 1977 desde Cape Canaveral Space Force Station

Loading…

TLE

EnvejeciendoSource: Space-Track

Época: Sep 14, 2026, 15:25 UTC

1 10025U 77041B   26257.64280889 -.00000035  00000-0  35799-3 0  9999
2 10025  21.3335 226.0698 7182832 187.4035 356.4361  2.22887020399953

Sigue ATLAS CENTAUR R/B en tiempo real con AllMySat

Download on the App Store